Location: *
(46.0770°N, 1.6444°E)
Time: 11:22:03
(UTC+00:00)

Aureole 1 Rocket - Pass Details

Date: 16 September 2019
Orbit: 379 x 1383 km, 73.9° (Epoch: 19 October)

Event Time Altitude Azimuth Distance (km) Brightness Sun altitude
Rises 18:35:34 0° 340° (NNW) 3,668 7.5 -6.3°
Reaches altitude 10° 18:38:32 10° 345° (NNW) 2,542 6.6 -6.8°
Maximum altitude 18:44:03 49° 60° (ENE) 914 3.6 -7.8°
Drops below altitude 10° 18:48:13 10° 136° (SE) 1,920 5.1 -8.5°
Enters shadow 18:49:03 - 140° (SE) 2,236 5.4 -8.6°
